Year,Month,Day,Hour,Minute,Value (Times are PST for temperature in C)
2013,07,25,00,00,15.90
2013,07,25,00,01,15.80
2013,07,25,00,02,15.80
2013,07,25,00,03,15.80
2013,07,25,00,04,15.80
2013,07,25,00,05,15.80
2013,07,25,00,06,15.80
2013,07,25,00,07,15.80
2013,07,25,00,08,15.80
2013,07,25,00,09,15.70
2013,07,25,00,10,15.70
2013,07,25,00,11,15.70
2013,07,25,00,12,15.60
2013,07,25,00,13,15.60
2013,07,25,00,14,15.60
2013,07,25,00,15,15.60
2013,07,25,00,16,15.50
2013,07,25,00,17,15.50
2013,07,25,00,18,15.50
2013,07,25,00,19,15.40
2013,07,25,00,20,15.40
2013,07,25,00,21,15.40
2013,07,25,00,22,15.30
2013,07,25,00,23,15.30
2013,07,25,00,24,15.30
2013,07,25,00,25,15.30
2013,07,25,00,26,15.30
2013,07,25,00,27,15.30
2013,07,25,00,28,15.20
2013,07,25,00,29,15.20
2013,07,25,00,30,15.20
2013,07,25,00,31,15.20
2013,07,25,00,32,15.10
2013,07,25,00,33,15.10
2013,07,25,00,34,15.10
2013,07,25,00,35,15.10
2013,07,25,00,36,15.00
2013,07,25,00,37,15.00
2013,07,25,00,38,15.00
2013,07,25,00,39,15.00
2013,07,25,00,40,14.90
2013,07,25,00,41,14.90
2013,07,25,00,42,14.90
2013,07,25,00,43,14.80
2013,07,25,00,44,14.80
2013,07,25,00,45,14.80
2013,07,25,00,46,14.80
2013,07,25,00,47,14.80
2013,07,25,00,48,14.80
2013,07,25,00,49,14.80
2013,07,25,00,50,14.70
2013,07,25,00,51,14.70
2013,07,25,00,52,14.70
2013,07,25,00,53,14.70
2013,07,25,00,54,14.70
2013,07,25,00,55,14.70
2013,07,25,00,56,14.60
2013,07,25,00,57,14.60
2013,07,25,00,58,14.60
2013,07,25,00,59,14.60
2013,07,25,01,00,14.60
2013,07,25,01,01,14.50
2013,07,25,01,02,14.50
2013,07,25,01,03,14.50
2013,07,25,01,04,14.50
2013,07,25,01,05,14.40
2013,07,25,01,06,14.40
2013,07,25,01,07,14.40
2013,07,25,01,08,14.40
2013,07,25,01,09,14.40
2013,07,25,01,10,14.40
2013,07,25,01,11,14.40
2013,07,25,01,12,14.30
2013,07,25,01,13,14.30
2013,07,25,01,14,14.30
2013,07,25,01,15,14.30
2013,07,25,01,16,14.30
2013,07,25,01,17,14.30
2013,07,25,01,18,14.30
2013,07,25,01,19,14.30
2013,07,25,01,20,14.30
2013,07,25,01,21,14.30
2013,07,25,01,22,14.30
2013,07,25,01,23,14.20
2013,07,25,01,24,14.20
2013,07,25,01,25,14.20
2013,07,25,01,26,14.20
2013,07,25,01,27,14.20
2013,07,25,01,28,14.20
2013,07,25,01,29,14.20
2013,07,25,01,30,14.20
2013,07,25,01,31,14.20
2013,07,25,01,32,14.20
2013,07,25,01,33,14.20
2013,07,25,01,34,14.20
2013,07,25,01,35,14.10
2013,07,25,01,36,14.10
2013,07,25,01,37,14.10
2013,07,25,01,38,14.00
2013,07,25,01,39,14.00
2013,07,25,01,40,14.00
2013,07,25,01,41,13.90
2013,07,25,01,42,13.90
2013,07,25,01,43,13.90
2013,07,25,01,44,13.80
2013,07,25,01,45,13.80
2013,07,25,01,46,13.80
2013,07,25,01,47,13.70
2013,07,25,01,48,13.70
2013,07,25,01,49,13.70
2013,07,25,01,50,13.70
2013,07,25,01,51,13.70
2013,07,25,01,52,13.70
2013,07,25,01,53,13.70
2013,07,25,01,54,13.70
2013,07,25,01,55,13.70
2013,07,25,01,56,13.70
2013,07,25,01,57,13.70
2013,07,25,01,58,13.70
2013,07,25,01,59,13.70
2013,07,25,02,00,13.70
2013,07,25,02,01,13.70
2013,07,25,02,02,13.70
2013,07,25,02,03,13.70
2013,07,25,02,04,13.70
2013,07,25,02,05,13.70
2013,07,25,02,06,13.80
2013,07,25,02,07,13.80
2013,07,25,02,08,13.90
2013,07,25,02,09,13.90
2013,07,25,02,10,13.90
2013,07,25,02,11,13.90
2013,07,25,02,12,13.90
2013,07,25,02,13,13.90
2013,07,25,02,14,13.90
2013,07,25,02,15,13.90
2013,07,25,02,16,13.90
2013,07,25,02,17,13.90
2013,07,25,02,18,13.80
2013,07,25,02,19,13.80
2013,07,25,02,20,13.80
2013,07,25,02,21,13.80
2013,07,25,02,22,13.80
2013,07,25,02,23,13.80
2013,07,25,02,24,13.80
2013,07,25,02,25,13.80
2013,07,25,02,26,13.80
2013,07,25,02,27,13.80
2013,07,25,02,28,13.80
2013,07,25,02,29,13.80
2013,07,25,02,30,13.80
2013,07,25,02,31,13.80
2013,07,25,02,32,13.80
2013,07,25,02,33,13.80
2013,07,25,02,34,13.80
2013,07,25,02,35,13.80
2013,07,25,02,36,13.80
2013,07,25,02,37,13.80
2013,07,25,02,38,13.70
2013,07,25,02,39,13.70
2013,07,25,02,40,13.70
2013,07,25,02,41,13.70
2013,07,25,02,42,13.70
2013,07,25,02,43,13.70
2013,07,25,02,44,13.70
2013,07,25,02,45,13.60
2013,07,25,02,46,13.60
2013,07,25,02,47,13.60
2013,07,25,02,48,13.60
2013,07,25,02,49,13.60
2013,07,25,02,50,13.50
2013,07,25,02,51,13.50
2013,07,25,02,52,13.50
2013,07,25,02,53,13.50
2013,07,25,02,54,13.50
2013,07,25,02,55,13.50
2013,07,25,02,56,13.50
2013,07,25,02,57,13.50
2013,07,25,02,58,13.60
2013,07,25,02,59,13.60
2013,07,25,03,00,13.60
2013,07,25,03,01,13.60
2013,07,25,03,02,13.60
2013,07,25,03,03,13.60
2013,07,25,03,04,13.60
2013,07,25,03,05,13.70
2013,07,25,03,06,13.70
2013,07,25,03,07,13.70
2013,07,25,03,08,13.70
2013,07,25,03,09,13.70
2013,07,25,03,10,13.70
2013,07,25,03,11,13.70
2013,07,25,03,12,13.70
2013,07,25,03,13,13.70
2013,07,25,03,14,13.70
2013,07,25,03,15,13.70
2013,07,25,03,16,13.70
2013,07,25,03,17,13.70
2013,07,25,03,18,13.70
2013,07,25,03,19,13.70
2013,07,25,03,20,13.70
2013,07,25,03,21,13.70
2013,07,25,03,22,13.70
2013,07,25,03,23,13.70
2013,07,25,03,24,13.70
2013,07,25,03,25,13.70
2013,07,25,03,26,13.70
2013,07,25,03,27,13.70
2013,07,25,03,28,13.70
2013,07,25,03,29,13.70
2013,07,25,03,30,13.70
2013,07,25,03,31,13.70
2013,07,25,03,32,13.70
2013,07,25,03,33,13.70
2013,07,25,03,34,13.60
2013,07,25,03,35,13.60
2013,07,25,03,36,13.60
2013,07,25,03,37,13.60
2013,07,25,03,38,13.60
2013,07,25,03,39,13.60
2013,07,25,03,40,13.60
2013,07,25,03,41,13.60
2013,07,25,03,42,13.60
2013,07,25,03,43,13.60
2013,07,25,03,44,13.60
2013,07,25,03,45,13.60
2013,07,25,03,46,13.50
2013,07,25,03,47,13.50
2013,07,25,03,48,13.50
2013,07,25,03,49,13.40
2013,07,25,03,50,13.40
2013,07,25,03,51,13.40
2013,07,25,03,52,13.30
2013,07,25,03,53,13.30
2013,07,25,03,54,13.30
2013,07,25,03,55,13.30
2013,07,25,03,56,13.20
2013,07,25,03,57,13.20
2013,07,25,03,58,13.10
2013,07,25,03,59,13.10
2013,07,25,04,00,13.10
2013,07,25,04,01,13.00
2013,07,25,04,02,13.00
2013,07,25,04,03,12.90
2013,07,25,04,04,12.90
2013,07,25,04,05,12.80
2013,07,25,04,06,12.80
2013,07,25,04,07,12.70
2013,07,25,04,08,12.60
2013,07,25,04,09,12.60
2013,07,25,04,10,12.50
2013,07,25,04,11,12.50
2013,07,25,04,12,12.50
2013,07,25,04,13,12.40
2013,07,25,04,14,12.40
2013,07,25,04,15,12.40
2013,07,25,04,16,12.30
2013,07,25,04,17,12.30
2013,07,25,04,18,12.30
2013,07,25,04,19,12.30
2013,07,25,04,20,12.30
2013,07,25,04,21,12.20
2013,07,25,04,22,12.20
2013,07,25,04,23,12.10
2013,07,25,04,24,12.10
2013,07,25,04,25,12.10
2013,07,25,04,26,12.00
2013,07,25,04,27,12.00
2013,07,25,04,28,12.00
2013,07,25,04,29,11.90
2013,07,25,04,30,11.90
2013,07,25,04,31,11.90
2013,07,25,04,32,11.80
2013,07,25,04,33,11.80
2013,07,25,04,34,11.80
2013,07,25,04,35,11.80
2013,07,25,04,36,11.80
2013,07,25,04,37,11.80
2013,07,25,04,38,11.80
2013,07,25,04,39,11.70
2013,07,25,04,40,11.70
2013,07,25,04,41,11.70
2013,07,25,04,42,11.60
2013,07,25,04,43,11.60
2013,07,25,04,44,11.60
2013,07,25,04,45,11.60
2013,07,25,04,46,11.60
2013,07,25,04,47,11.50
2013,07,25,04,48,11.50
2013,07,25,04,49,11.60
2013,07,25,04,50,11.60
2013,07,25,04,51,11.60
2013,07,25,04,52,11.60
2013,07,25,04,53,11.50
2013,07,25,04,54,11.50
2013,07,25,04,55,11.60
2013,07,25,04,56,11.60
2013,07,25,04,57,11.60
2013,07,25,04,58,11.60
2013,07,25,04,59,11.60
2013,07,25,05,00,11.60
2013,07,25,05,01,11.60
2013,07,25,05,02,11.60
2013,07,25,05,03,11.60
2013,07,25,05,04,11.50
2013,07,25,05,05,11.40
2013,07,25,05,06,11.40
2013,07,25,05,07,11.40
2013,07,25,05,08,11.40
2013,07,25,05,09,11.40
2013,07,25,05,10,11.40
2013,07,25,05,11,11.40
2013,07,25,05,12,11.40
2013,07,25,05,13,11.40
2013,07,25,05,14,11.40
2013,07,25,05,15,11.40
2013,07,25,05,16,11.40
2013,07,25,05,17,11.40
2013,07,25,05,18,11.40
2013,07,25,05,19,11.40
2013,07,25,05,20,11.50
2013,07,25,05,21,11.60
2013,07,25,05,22,11.60
2013,07,25,05,23,11.60
2013,07,25,05,24,11.60
2013,07,25,05,25,11.60
2013,07,25,05,26,11.70
2013,07,25,05,27,11.70
2013,07,25,05,28,11.70
2013,07,25,05,29,11.80
2013,07,25,05,30,11.80
2013,07,25,05,31,11.80
2013,07,25,05,32,11.80
2013,07,25,05,33,11.80
2013,07,25,05,34,11.80
2013,07,25,05,35,11.80
2013,07,25,05,36,11.80
2013,07,25,05,37,11.80
2013,07,25,05,38,11.90
2013,07,25,05,39,11.90
2013,07,25,05,40,11.90
2013,07,25,05,41,12.00
2013,07,25,05,42,12.00
2013,07,25,05,43,12.00
2013,07,25,05,44,12.10
2013,07,25,05,45,12.10
2013,07,25,05,46,12.20
2013,07,25,05,47,12.20
2013,07,25,05,48,12.30
2013,07,25,05,49,12.30
2013,07,25,05,50,12.30
2013,07,25,05,51,12.40
2013,07,25,05,52,12.40
2013,07,25,05,53,12.50
2013,07,25,05,54,12.50
2013,07,25,05,55,12.60
2013,07,25,05,56,12.70
2013,07,25,05,57,12.70
2013,07,25,05,58,12.80
2013,07,25,05,59,12.80
2013,07,25,06,00,12.80
2013,07,25,06,01,12.90
2013,07,25,06,02,12.90
2013,07,25,06,03,13.00
2013,07,25,06,04,13.00
2013,07,25,06,05,13.00
2013,07,25,06,06,13.10
2013,07,25,06,07,13.10
2013,07,25,06,08,13.10
2013,07,25,06,09,13.20
2013,07,25,06,10,13.20
2013,07,25,06,11,13.20
2013,07,25,06,12,13.30
2013,07,25,06,13,13.30
2013,07,25,06,14,13.30
2013,07,25,06,15,13.30
2013,07,25,06,16,13.30
2013,07,25,06,17,13.30
2013,07,25,06,18,13.30
2013,07,25,06,19,13.30
2013,07,25,06,20,13.40
2013,07,25,06,21,13.40
2013,07,25,06,22,13.50
2013,07,25,06,23,13.50
2013,07,25,06,24,13.60
2013,07,25,06,25,13.60
2013,07,25,06,26,13.60
2013,07,25,06,27,13.70
2013,07,25,06,28,13.70
2013,07,25,06,29,13.70
2013,07,25,06,30,13.70
2013,07,25,06,31,13.70
2013,07,25,06,32,13.80
2013,07,25,06,33,13.80
2013,07,25,06,34,13.80
2013,07,25,06,35,13.90
2013,07,25,06,36,13.90
2013,07,25,06,37,14.00
2013,07,25,06,38,14.00
2013,07,25,06,39,14.00
2013,07,25,06,40,14.10
2013,07,25,06,41,14.20
2013,07,25,06,42,14.20
2013,07,25,06,43,14.20
2013,07,25,06,44,14.30
2013,07,25,06,45,14.40
2013,07,25,06,46,14.40
2013,07,25,06,47,14.50
2013,07,25,06,48,14.50
2013,07,25,06,49,14.60
2013,07,25,06,50,14.60
2013,07,25,06,51,14.60
2013,07,25,06,52,14.60
2013,07,25,06,53,14.70
2013,07,25,06,54,14.70
2013,07,25,06,55,14.80
2013,07,25,06,56,14.80
2013,07,25,06,57,14.80
2013,07,25,06,58,14.80
2013,07,25,06,59,14.80
2013,07,25,07,00,14.90
2013,07,25,07,01,14.90
2013,07,25,07,02,15.00
2013,07,25,07,03,15.00
2013,07,25,07,04,15.00
2013,07,25,07,05,15.10
2013,07,25,07,06,15.10
2013,07,25,07,07,15.20
2013,07,25,07,08,15.20
2013,07,25,07,09,15.30
2013,07,25,07,10,15.30
2013,07,25,07,11,15.30
2013,07,25,07,12,15.30
2013,07,25,07,13,15.40
2013,07,25,07,14,15.40
2013,07,25,07,15,15.40
2013,07,25,07,16,15.50
2013,07,25,07,17,15.50
2013,07,25,07,18,15.60
2013,07,25,07,19,15.60
2013,07,25,07,20,15.70
2013,07,25,07,21,15.70
2013,07,25,07,22,15.70
2013,07,25,07,23,15.80
2013,07,25,07,24,15.80
2013,07,25,07,25,15.80
2013,07,25,07,26,15.80
2013,07,25,07,27,15.90
2013,07,25,07,28,16.00
2013,07,25,07,29,16.20
2013,07,25,07,30,16.30
2013,07,25,07,31,16.30
2013,07,25,07,32,16.30
2013,07,25,07,33,16.30
2013,07,25,07,34,16.30
2013,07,25,07,35,16.40
2013,07,25,07,36,16.40
2013,07,25,07,37,16.30
2013,07,25,07,38,16.30
2013,07,25,07,39,16.30
2013,07,25,07,40,16.30
2013,07,25,07,41,16.40
2013,07,25,07,42,16.40
2013,07,25,07,43,16.40
2013,07,25,07,44,16.40
2013,07,25,07,45,16.40
2013,07,25,07,46,16.40
2013,07,25,07,47,16.40
2013,07,25,07,48,16.50
2013,07,25,07,49,16.60
2013,07,25,07,50,16.70
2013,07,25,07,51,16.80
2013,07,25,07,52,16.90
2013,07,25,07,53,17.00
2013,07,25,07,54,17.10
2013,07,25,07,55,17.10
2013,07,25,07,56,17.10
2013,07,25,07,57,17.10
2013,07,25,07,58,17.00
2013,07,25,07,59,16.90
2013,07,25,08,00,16.80
2013,07,25,08,01,16.70
2013,07,25,08,02,16.70
2013,07,25,08,03,16.60
2013,07,25,08,04,16.60
2013,07,25,08,05,16.60
2013,07,25,08,06,16.60
2013,07,25,08,07,16.60
2013,07,25,08,08,16.60
2013,07,25,08,09,16.60
2013,07,25,08,10,16.70
2013,07,25,08,11,16.70
2013,07,25,08,12,16.70
2013,07,25,08,13,16.70
2013,07,25,08,14,16.60
2013,07,25,08,15,16.50
2013,07,25,08,16,16.40
2013,07,25,08,17,16.30
2013,07,25,08,18,16.30
2013,07,25,08,19,16.20
2013,07,25,08,20,16.10
2013,07,25,08,21,16.10
2013,07,25,08,22,16.00
2013,07,25,08,23,15.90
2013,07,25,08,24,15.90
2013,07,25,08,25,15.90
2013,07,25,08,26,15.80
2013,07,25,08,27,15.80
2013,07,25,08,28,15.80
2013,07,25,08,29,15.80
2013,07,25,08,30,15.80
2013,07,25,08,31,15.90
2013,07,25,08,32,16.00
2013,07,25,08,33,16.10
2013,07,25,08,34,16.10
2013,07,25,08,35,16.20
2013,07,25,08,36,16.20
2013,07,25,08,37,16.30
2013,07,25,08,38,16.40
2013,07,25,08,39,16.40
2013,07,25,08,40,16.50
2013,07,25,08,41,16.60
2013,07,25,08,42,16.70
2013,07,25,08,43,16.80
2013,07,25,08,44,16.90
2013,07,25,08,45,17.00
2013,07,25,08,46,17.10
2013,07,25,08,47,17.20
2013,07,25,08,48,17.30
2013,07,25,08,49,17.40
2013,07,25,08,50,17.50
2013,07,25,08,51,17.50
2013,07,25,08,52,17.60
2013,07,25,08,53,17.70
2013,07,25,08,54,17.80
2013,07,25,08,55,17.90
2013,07,25,08,56,17.90
2013,07,25,08,57,17.90
2013,07,25,08,58,17.90
2013,07,25,08,59,18.00
2013,07,25,09,00,18.10
2013,07,25,09,01,18.20
2013,07,25,09,02,18.20
2013,07,25,09,03,18.30
2013,07,25,09,04,18.40
2013,07,25,09,05,18.40
2013,07,25,09,06,18.40
2013,07,25,09,07,18.40
2013,07,25,09,08,18.40
2013,07,25,09,09,18.30
2013,07,25,09,10,18.40
2013,07,25,09,11,18.40
2013,07,25,09,12,18.40
2013,07,25,09,13,18.40
2013,07,25,09,14,18.40
2013,07,25,09,15,18.40
2013,07,25,09,16,18.50
2013,07,25,09,17,18.50
2013,07,25,09,18,18.50
2013,07,25,09,19,18.40
2013,07,25,09,20,18.50
2013,07,25,09,21,18.40
2013,07,25,09,22,18.40
2013,07,25,09,23,18.30
2013,07,25,09,24,18.30
2013,07,25,09,25,18.20
2013,07,25,09,26,18.20
2013,07,25,09,27,18.20
2013,07,25,09,28,18.10
2013,07,25,09,29,18.10
2013,07,25,09,30,18.00
2013,07,25,09,31,17.90
2013,07,25,09,32,17.80
2013,07,25,09,33,17.70
2013,07,25,09,34,17.60
2013,07,25,09,35,17.60
2013,07,25,09,36,17.60
2013,07,25,09,37,17.60
2013,07,25,09,38,17.60
2013,07,25,09,39,17.50
2013,07,25,09,40,17.60
2013,07,25,09,41,17.60
2013,07,25,09,42,17.60
2013,07,25,09,43,17.70
2013,07,25,09,44,17.80
2013,07,25,09,45,17.90
2013,07,25,09,46,18.00
2013,07,25,09,47,18.10
2013,07,25,09,48,18.20
2013,07,25,09,49,18.30
2013,07,25,09,50,18.40
2013,07,25,09,51,18.50
2013,07,25,09,52,18.60
2013,07,25,09,53,18.70
2013,07,25,09,54,18.90
2013,07,25,09,55,18.90
2013,07,25,09,56,19.00
2013,07,25,09,57,19.10
2013,07,25,09,58,19.10
2013,07,25,09,59,19.20
2013,07,25,10,00,19.20
2013,07,25,10,01,19.20
2013,07,25,10,02,19.10
2013,07,25,10,03,19.10
2013,07,25,10,04,19.10
2013,07,25,10,05,19.10
2013,07,25,10,06,19.10
2013,07,25,10,07,19.20
2013,07,25,10,08,19.30
2013,07,25,10,09,19.30
2013,07,25,10,10,19.30
2013,07,25,10,11,19.40
2013,07,25,10,12,19.50
2013,07,25,10,13,19.50
2013,07,25,10,14,19.50
2013,07,25,10,15,19.50
2013,07,25,10,16,19.50
2013,07,25,10,17,19.50
2013,07,25,10,18,19.50
2013,07,25,10,19,19.60
2013,07,25,10,20,19.70
2013,07,25,10,21,19.70
2013,07,25,10,22,19.80
2013,07,25,10,23,19.80
2013,07,25,10,24,19.80
2013,07,25,10,25,19.70
2013,07,25,10,26,19.80
2013,07,25,10,27,19.80
2013,07,25,10,28,19.90
2013,07,25,10,29,19.80
2013,07,25,10,30,19.80
2013,07,25,10,31,19.80
2013,07,25,10,32,19.70
2013,07,25,10,33,19.70
2013,07,25,10,34,19.60
2013,07,25,10,35,19.60
2013,07,25,10,36,19.70
2013,07,25,10,37,19.80
2013,07,25,10,38,19.80
2013,07,25,10,39,19.90
2013,07,25,10,40,19.90
2013,07,25,10,41,19.90
2013,07,25,10,42,20.00
2013,07,25,10,43,20.10
2013,07,25,10,44,20.20
2013,07,25,10,45,20.30
2013,07,25,10,46,20.30
2013,07,25,10,47,20.30
2013,07,25,10,48,20.20
2013,07,25,10,49,20.20
2013,07,25,10,50,20.20
2013,07,25,10,51,20.10
2013,07,25,10,52,20.10
2013,07,25,10,53,20.20
2013,07,25,10,54,20.20
2013,07,25,10,55,20.20
2013,07,25,10,56,20.10
2013,07,25,10,57,19.90
2013,07,25,10,58,19.80
2013,07,25,10,59,19.70
2013,07,25,11,00,19.60
2013,07,25,11,01,19.60
2013,07,25,11,02,19.60
2013,07,25,11,03,19.70
2013,07,25,11,04,19.70
2013,07,25,11,05,19.70
2013,07,25,11,06,19.80
2013,07,25,11,07,19.80
2013,07,25,11,08,19.80
2013,07,25,11,09,19.80
2013,07,25,11,10,19.80
2013,07,25,11,11,19.80
2013,07,25,11,12,19.80
2013,07,25,11,13,19.80
2013,07,25,11,14,19.90
2013,07,25,11,15,19.90
2013,07,25,11,16,19.90
2013,07,25,11,17,19.90
2013,07,25,11,18,19.90
2013,07,25,11,19,19.90
2013,07,25,11,20,19.90
2013,07,25,11,21,19.90
2013,07,25,11,22,19.90
2013,07,25,11,23,19.90
2013,07,25,11,24,19.90
2013,07,25,11,25,19.90
2013,07,25,11,26,20.00
2013,07,25,11,27,20.10
2013,07,25,11,28,20.20
2013,07,25,11,29,20.20
2013,07,25,11,30,20.20
2013,07,25,11,31,20.20
2013,07,25,11,32,20.20
2013,07,25,11,33,20.20
2013,07,25,11,34,20.20
2013,07,25,11,35,20.10
2013,07,25,11,36,20.10
2013,07,25,11,37,20.00
2013,07,25,11,38,19.90
2013,07,25,11,39,19.90
2013,07,25,11,40,19.80
2013,07,25,11,41,19.60
2013,07,25,11,42,19.50
2013,07,25,11,43,19.40
2013,07,25,11,44,19.20
2013,07,25,11,45,19.10
2013,07,25,11,46,19.00
2013,07,25,11,47,18.90
2013,07,25,11,48,18.90
2013,07,25,11,49,18.90
2013,07,25,11,50,18.90
2013,07,25,11,51,18.90
2013,07,25,11,52,18.90
2013,07,25,11,53,19.10
2013,07,25,11,54,19.10
2013,07,25,11,55,19.10
2013,07,25,11,56,19.20
2013,07,25,11,57,19.20
2013,07,25,11,58,19.30
2013,07,25,11,59,19.30
2013,07,25,12,00,19.30
2013,07,25,12,01,19.30
2013,07,25,12,02,19.30
2013,07,25,12,03,19.40
2013,07,25,12,04,19.40
2013,07,25,12,05,19.50
2013,07,25,12,06,19.60
2013,07,25,12,07,19.60
2013,07,25,12,08,19.60
2013,07,25,12,09,19.60
2013,07,25,12,10,19.60
2013,07,25,12,11,19.60
2013,07,25,12,12,19.60
2013,07,25,12,13,19.60
2013,07,25,12,14,19.60
2013,07,25,12,15,19.70
2013,07,25,12,16,19.70
2013,07,25,12,17,19.80
2013,07,25,12,18,19.90
2013,07,25,12,19,20.10
2013,07,25,12,20,20.20
2013,07,25,12,21,20.20
2013,07,25,12,22,20.30
2013,07,25,12,23,20.40
2013,07,25,12,24,20.50
2013,07,25,12,25,20.60
2013,07,25,12,26,20.60
2013,07,25,12,27,20.70
2013,07,25,12,28,20.80
2013,07,25,12,29,20.90
2013,07,25,12,30,21.00
2013,07,25,12,31,21.10
2013,07,25,12,32,21.10
2013,07,25,12,33,21.10
2013,07,25,12,34,21.10
2013,07,25,12,35,21.20
2013,07,25,12,36,21.30
2013,07,25,12,37,21.40
2013,07,25,12,38,21.50
2013,07,25,12,39,21.50
2013,07,25,12,40,21.30
2013,07,25,12,41,21.30
2013,07,25,12,42,21.30
2013,07,25,12,43,21.30
2013,07,25,12,44,21.30
2013,07,25,12,45,21.30
2013,07,25,12,46,21.30
2013,07,25,12,47,21.20
2013,07,25,12,48,21.30
2013,07,25,12,49,21.30
2013,07,25,12,50,21.50
2013,07,25,12,51,21.60
2013,07,25,12,52,21.80
2013,07,25,12,53,21.90
2013,07,25,12,54,22.00
2013,07,25,12,55,22.10
2013,07,25,12,56,22.00
2013,07,25,12,57,21.90
2013,07,25,12,58,21.80
2013,07,25,12,59,21.80
2013,07,25,13,00,21.90
2013,07,25,13,01,22.00
2013,07,25,13,02,22.00
2013,07,25,13,03,22.00
2013,07,25,13,04,21.80
2013,07,25,13,05,21.70
2013,07,25,13,06,21.60
2013,07,25,13,07,21.60
2013,07,25,13,08,21.40
2013,07,25,13,09,21.30
2013,07,25,13,10,21.20
2013,07,25,13,11,21.20
2013,07,25,13,12,21.40
2013,07,25,13,13,21.60
2013,07,25,13,14,21.60
2013,07,25,13,15,21.70
2013,07,25,13,16,21.80
2013,07,25,13,17,21.80
2013,07,25,13,18,21.90
2013,07,25,13,19,22.00
2013,07,25,13,20,22.00
2013,07,25,13,21,22.00
2013,07,25,13,22,22.10
2013,07,25,13,23,22.10
2013,07,25,13,24,22.10
2013,07,25,13,25,22.20
2013,07,25,13,26,22.20
2013,07,25,13,27,22.40
2013,07,25,13,28,22.50
2013,07,25,13,29,22.70
2013,07,25,13,30,22.90
2013,07,25,13,31,22.90
2013,07,25,13,32,23.10
2013,07,25,13,33,23.20
2013,07,25,13,34,23.20
2013,07,25,13,35,23.30
2013,07,25,13,36,23.30
2013,07,25,13,37,23.30
2013,07,25,13,38,23.30
2013,07,25,13,39,23.30
2013,07,25,13,40,23.40
2013,07,25,13,41,23.40
2013,07,25,13,42,23.60
2013,07,25,13,43,23.70
2013,07,25,13,44,23.70
2013,07,25,13,45,23.70
2013,07,25,13,46,23.80
2013,07,25,13,47,23.90
2013,07,25,13,48,24.00
2013,07,25,13,49,24.10
2013,07,25,13,50,24.10
2013,07,25,13,51,24.10
2013,07,25,13,52,24.10
2013,07,25,13,53,24.00
2013,07,25,13,54,23.90
2013,07,25,13,55,23.90
2013,07,25,13,56,23.90
2013,07,25,13,57,23.90
2013,07,25,13,58,23.90
2013,07,25,13,59,23.90
2013,07,25,14,00,23.90
2013,07,25,14,01,24.00
2013,07,25,14,02,23.90
2013,07,25,14,03,23.90
2013,07,25,14,04,23.80
2013,07,25,14,05,23.80
2013,07,25,14,06,23.80
2013,07,25,14,07,23.80
2013,07,25,14,08,23.80
2013,07,25,14,09,23.80
2013,07,25,14,10,23.80
2013,07,25,14,11,24.00
2013,07,25,14,12,24.10
2013,07,25,14,13,24.30
2013,07,25,14,14,24.20
2013,07,25,14,15,24.00
2013,07,25,14,16,23.80
2013,07,25,14,17,23.70
2013,07,25,14,18,23.40
2013,07,25,14,19,23.30
2013,07,25,14,20,23.20
2013,07,25,14,21,23.20
2013,07,25,14,22,23.10
2013,07,25,14,23,23.00
2013,07,25,14,24,22.90
2013,07,25,14,25,22.80
2013,07,25,14,26,22.90
2013,07,25,14,27,22.90
2013,07,25,14,28,22.90
2013,07,25,14,29,23.00
2013,07,25,14,30,23.10
2013,07,25,14,31,23.20
2013,07,25,14,32,23.10
2013,07,25,14,33,23.00
2013,07,25,14,34,22.80
2013,07,25,14,35,22.80
2013,07,25,14,36,22.70
2013,07,25,14,37,22.70
2013,07,25,14,38,22.60
2013,07,25,14,39,22.60
2013,07,25,14,40,22.70
2013,07,25,14,41,22.80
2013,07,25,14,42,22.90
2013,07,25,14,43,22.80
2013,07,25,14,44,22.80
2013,07,25,14,45,22.90
2013,07,25,14,46,22.90
2013,07,25,14,47,22.90
2013,07,25,14,48,22.90
2013,07,25,14,49,22.90
2013,07,25,14,50,22.80
2013,07,25,14,51,22.80
2013,07,25,14,52,22.70
2013,07,25,14,53,22.60
2013,07,25,14,54,22.60
2013,07,25,14,55,22.60
2013,07,25,14,56,22.50
2013,07,25,14,57,22.40
2013,07,25,14,58,22.40
2013,07,25,14,59,22.40
2013,07,25,15,00,22.40
2013,07,25,15,01,22.40
2013,07,25,15,02,22.40
2013,07,25,15,03,22.40
2013,07,25,15,04,22.40
2013,07,25,15,05,22.50
2013,07,25,15,06,22.70
2013,07,25,15,07,22.80
2013,07,25,15,08,22.90
2013,07,25,15,09,22.90
2013,07,25,15,10,22.90
2013,07,25,15,11,22.90
2013,07,25,15,12,22.90
2013,07,25,15,13,22.90
2013,07,25,15,14,22.90
2013,07,25,15,15,23.10
2013,07,25,15,16,22.90
2013,07,25,15,17,22.90
2013,07,25,15,18,22.80
2013,07,25,15,19,22.70
2013,07,25,15,20,22.70
2013,07,25,15,21,22.80
2013,07,25,15,22,22.90
2013,07,25,15,23,22.80
2013,07,25,15,24,22.70
2013,07,25,15,25,22.70
2013,07,25,15,26,22.70
2013,07,25,15,27,22.70
2013,07,25,15,28,22.70
2013,07,25,15,29,22.60
2013,07,25,15,30,22.60
2013,07,25,15,31,22.80
2013,07,25,15,32,22.90
2013,07,25,15,33,23.00
2013,07,25,15,34,23.10
2013,07,25,15,35,23.10
2013,07,25,15,36,23.00
2013,07,25,15,37,22.90
2013,07,25,15,38,22.90
2013,07,25,15,39,22.90
2013,07,25,15,40,22.90
2013,07,25,15,41,22.90
2013,07,25,15,42,22.90
2013,07,25,15,43,22.80
2013,07,25,15,44,22.80
2013,07,25,15,45,22.80
2013,07,25,15,46,22.80
2013,07,25,15,47,22.90
2013,07,25,15,48,22.90
2013,07,25,15,49,23.10
2013,07,25,15,50,23.10
2013,07,25,15,51,23.10
2013,07,25,15,52,23.10
2013,07,25,15,53,23.10
2013,07,25,15,54,23.10
2013,07,25,15,55,23.20
2013,07,25,15,56,23.30
2013,07,25,15,57,23.30
2013,07,25,15,58,23.30
2013,07,25,15,59,23.30
2013,07,25,16,00,23.30
2013,07,25,16,01,23.30
2013,07,25,16,02,23.10
2013,07,25,16,03,22.90
2013,07,25,16,04,22.90
2013,07,25,16,05,22.90
2013,07,25,16,06,22.90
2013,07,25,16,07,22.90
2013,07,25,16,08,23.00
2013,07,25,16,09,23.10
2013,07,25,16,10,23.30
2013,07,25,16,11,23.30
2013,07,25,16,12,23.40
2013,07,25,16,13,23.60
2013,07,25,16,14,23.60
2013,07,25,16,15,23.40
2013,07,25,16,16,23.40
2013,07,25,16,17,23.40
2013,07,25,16,18,23.40
2013,07,25,16,19,23.30
2013,07,25,16,20,23.30
2013,07,25,16,21,23.30
2013,07,25,16,22,23.20
2013,07,25,16,23,23.20
2013,07,25,16,24,23.20
2013,07,25,16,25,23.20
2013,07,25,16,26,23.30
2013,07,25,16,27,23.30
2013,07,25,16,28,23.30
2013,07,25,16,29,23.40
2013,07,25,16,30,23.50
2013,07,25,16,31,23.60
2013,07,25,16,32,23.70
2013,07,25,16,33,23.70
2013,07,25,16,34,23.70
2013,07,25,16,35,23.60
2013,07,25,16,36,23.30
2013,07,25,16,37,23.10
2013,07,25,16,38,22.80
2013,07,25,16,39,22.60
2013,07,25,16,40,22.30
2013,07,25,16,41,22.10
2013,07,25,16,42,21.90
2013,07,25,16,43,21.80
2013,07,25,16,44,21.80
2013,07,25,16,45,21.80
2013,07,25,16,46,21.80
2013,07,25,16,47,21.90
2013,07,25,16,48,22.00
2013,07,25,16,49,22.10
2013,07,25,16,50,22.10
2013,07,25,16,51,22.10
2013,07,25,16,52,22.10
2013,07,25,16,53,22.10
2013,07,25,16,54,22.10
2013,07,25,16,55,22.10
2013,07,25,16,56,22.10
2013,07,25,16,57,22.10
2013,07,25,16,58,22.10
2013,07,25,16,59,22.20
2013,07,25,17,00,22.10
2013,07,25,17,01,22.00
2013,07,25,17,02,21.80
2013,07,25,17,03,21.70
2013,07,25,17,04,21.60
2013,07,25,17,05,21.60
2013,07,25,17,06,21.60
2013,07,25,17,07,21.60
2013,07,25,17,08,21.60
2013,07,25,17,09,21.60
2013,07,25,17,10,21.60
2013,07,25,17,11,21.60
2013,07,25,17,12,21.60
2013,07,25,17,13,21.60
2013,07,25,17,14,21.60
2013,07,25,17,15,21.70
2013,07,25,17,16,21.70
2013,07,25,17,17,21.80
2013,07,25,17,18,21.90
2013,07,25,17,19,21.90